| time (UTC) | temp F | wind direction | speed MPH | gust MPH | rain 1hr in | rain 24hr in | rain mn in | humidity % | barometer mb |
| 20260504141017 | 53 | 279 | 0.0 | 0.0 | 0.00 | 0.00 | 0.00 | 41 | 1002.0 |
| 20260504140515 | 52 | 279 | 0.0 | 0.0 | 0.00 | 0.00 | 0.00 | 40 | 1002.0 |
| 20260504130505 | 45 | 279 | 0.0 | 0.0 | 0.00 | 0.00 | 0.00 | 57 | 1002.0 |
| 20260504110553 | 39 | 279 | 0.0 | 0.0 | 0.00 | 0.00 | 0.00 | 64 | 1002.1 |
| 20260504100545 | 39 | 280 | 0.0 | 0.0 | 0.00 | 0.00 | 0.00 | 64 | 1002.4 |
| 20260504081524 | 46 | 279 | 0.0 | 0.0 | 0.00 | 0.00 | 0.00 | 50 | 1002.9 |
| 20260504081022 | 47 | 279 | 0.0 | 0.0 | 0.00 | 0.00 | 0.00 | 49 | 1003.0 |
| 20260504080520 | 47 | 279 | 0.0 | 0.0 | 0.00 | 0.00 | 0.00 | 48 | 1002.9 |
| 20260504050556 | 53 | 279 | 0.0 | 0.0 | 0.00 | 0.00 | 0.00 | 40 | 1003.4 |
| 20260504045554 | 54 | 279 | 0.0 | 0.0 | 0.00 | 0.00 | 0.00 | 41 | 1003.5 |
| 20260504045054 | 54 | 279 | 0.0 | 0.0 | 0.00 | 0.00 | 0.00 | 39 | 1003.6 |
| 20260504044602 | 54 | 279 | 0.0 | 0.0 | 0.00 | 0.00 | 0.00 | 40 | 1003.6 |
| 20260504044054 | 54 | 279 | 0.0 | 0.0 | 0.00 | 0.00 | 0.00 | 41 | 1003.7 |
| 20260504043554 | 54 | 279 | 0.0 | 0.0 | 0.00 | 0.00 | 0.00 | 39 | 1003.8 |
| 20260504043055 | 54 | 279 | 0.0 | 0.0 | 0.00 | 0.00 | 0.00 | 40 | 1003.8 |
| 20260504042554 | 54 | 279 | 0.0 | 0.0 | 0.00 | 0.00 | 0.00 | 40 | 1003.9 |
| 20260504042058 | 54 | 279 | 0.0 | 0.0 | 0.00 | 0.00 | 0.00 | 40 | 1004.0 |
| 20260504041554 | 54 | 279 | 0.0 | 0.0 | 0.00 | 0.00 | 0.00 | 41 | 1004.0 |
| 20260504041055 | 55 | 279 | 0.0 | 0.0 | 0.00 | 0.00 | 0.00 | 40 | 1003.8 |
| 20260504040553 | 55 | 279 | 0.0 | 0.0 | 0.00 | 0.00 | 0.00 | 40 | 1003.9 |
| 20260504040103 | 55 | 279 | 0.0 | 0.0 | 0.00 | 0.00 | 0.00 | 42 | 1004.1 |
| 20260504035552 | 56 | 279 | 0.0 | 0.0 | 0.00 | 0.00 | 0.00 | 40 | 1004.1 |
| 20260504035056 | 56 | 279 | 0.0 | 0.0 | 0.00 | 0.00 | 0.00 | 39 | 1004.1 |
| 20260504034559 | 56 | 279 | 0.0 | 0.0 | 0.00 | 0.00 | 0.00 | 38 | 1004.1 |
| 20260504034052 | 56 | 279 | 0.0 | 0.0 | 0.00 | 0.00 | 0.00 | 37 | 1004.1 |
| 20260504033552 | 56 | 279 | 0.0 | 0.0 | 0.00 | 0.00 | 0.00 | 37 | 1004.1 |
| 20260504033125 | 56 | 279 | 0.0 | 0.0 | 0.00 | 0.00 | 0.00 | 36 | 1004.0 |
| 20260504032552 | 57 | 279 | 0.0 | 0.0 | 0.00 | 0.00 | 0.00 | 37 | 1004.0 |
| 20260504032051 | 57 | 279 | 0.0 | 0.0 | 0.00 | 0.00 | 0.00 | 35 | 1004.1 |
| 20260504031551 | 57 | 279 | 0.0 | 0.0 | 0.00 | 0.00 | 0.00 | 34 | 1004.1 |
| 20260504031051 | 57 | 279 | 0.0 | 0.0 | 0.00 | 0.00 | 0.00 | 34 | 1004.0 |
| 20260504030550 | 58 | 279 | 0.0 | 0.0 | 0.00 | 0.00 | 0.00 | 34 | 1004.0 |
| 20260504030051 | 58 | 279 | 0.0 | 0.0 | 0.00 | 0.00 | 0.00 | 32 | 1004.0 |
| 20260504025550 | 59 | 279 | 0.0 | 0.0 | 0.00 | 0.00 | 0.00 | 35 | 1003.9 |
| 20260504025050 | 59 | 279 | 0.0 | 0.0 | 0.00 | 0.00 | 0.00 | 32 | 1003.9 |
| 20260504024550 | 59 | 279 | 0.0 | 0.0 | 0.00 | 0.00 | 0.00 | 32 | 1003.9 |
| 20260504024049 | 60 | 279 | 0.0 | 0.0 | 0.00 | 0.00 | 0.00 | 33 | 1003.9 |
| 20260504023549 | 60 | 279 | 0.0 | 0.0 | 0.00 | 0.00 | 0.00 | 31 | 1003.9 |
| 20260504023100 | 60 | 279 | 0.0 | 0.0 | 0.00 | 0.00 | 0.00 | 30 | 1004.0 |
| 20260504022549 | 60 | 279 | 0.0 | 0.0 | 0.00 | 0.00 | 0.00 | 29 | 1003.9 |
| 20260504022048 | 61 | 279 | 0.0 | 1.0 | 0.00 | 0.00 | 0.00 | 29 | 1004.0 |
| 20260504021551 | 61 | 279 | 0.0 | 1.0 | 0.00 | 0.00 | 0.00 | 29 | 1004.0 |
| 20260504021048 | 61 | 279 | 0.0 | 0.0 | 0.00 | 0.00 | 0.00 | 28 | 1004.0 |
| 20260504020548 | 62 | 279 | 0.0 | 0.0 | 0.00 | 0.00 | 0.00 | 27 | 1004.0 |
| 20260504020056 | 62 | 279 | 0.0 | 0.0 | 0.00 | 0.00 | 0.00 | 27 | 1003.9 |
| 20260504015548 | 62 | 279 | 0.0 | 0.0 | 0.00 | 0.00 | 0.00 | 27 | 1003.9 |
| 20260504015047 | 63 | 279 | 0.0 | 0.0 | 0.00 | 0.00 | 0.00 | 27 | 1003.9 |
| 20260504014550 | 63 | 279 | 0.0 | 0.0 | 0.00 | 0.00 | 0.00 | 26 | 1003.8 |
| 20260504014047 | 63 | 279 | 0.0 | 0.0 | 0.00 | 0.00 | 0.00 | 26 | 1003.8 |
| 20260504013547 | 63 | 279 | 0.0 | 0.0 | 0.00 | 0.00 | 0.00 | 25 | 1003.8 |
| 20260504013058 | 64 | 279 | 0.0 | 0.0 | 0.00 | 0.00 | 0.00 | 26 | 1003.8 |
| 20260504012549 | 64 | 279 | 0.0 | 0.0 | 0.00 | 0.00 | 0.00 | 25 | 1003.8 |
| 20260504012047 | 64 | 279 | 0.0 | 0.0 | 0.00 | 0.00 | 0.00 | 25 | 1003.8 |
| 20260504011547 | 64 | 279 | 0.0 | 5.0 | 0.00 | 0.00 | 0.00 | 25 | 1003.7 |
| 20260504011047 | 64 | 279 | 0.0 | 5.0 | 0.00 | 0.00 | 0.00 | 24 | 1003.7 |
| 20260504010546 | 65 | 279 | 0.0 | 11.0 | 0.00 | 0.00 | 0.00 | 24 | 1003.7 |
| 20260504010053 | 65 | 277 | 1.0 | 9.0 | 0.00 | 0.00 | 0.00 | 24 | 1003.7 |
| 20260504005546 | 65 | 272 | 0.0 | 9.0 | 0.00 | 0.00 | 0.00 | 23 | 1003.7 |
| 20260504005045 | 66 | 281 | 1.0 | 8.0 | 0.00 | 0.00 | 0.00 | 23 | 1003.7 |
| 20260504004559 | 66 | 276 | 0.0 | 6.0 | 0.00 | 0.00 | 0.00 | 23 | 1003.7 |
| 20260504004045 | 66 | 276 | 0.0 | 6.0 | 0.00 | 0.00 | 0.00 | 23 | 1003.7 |
| 20260504003545 | 66 | 279 | 0.0 | 6.0 | 0.00 | 0.00 | 0.00 | 23 | 1003.7 |
| 20260504003045 | 67 | 279 | 0.0 | 6.0 | 0.00 | 0.00 | 0.00 | 23 | 1003.7 |
| 20260504002545 | 67 | 279 | 0.0 | 6.0 | 0.00 | 0.00 | 0.00 | 23 | 1003.7 |
| 20260504002045 | 67 | 279 | 0.0 | 5.0 | 0.00 | 0.00 | 0.00 | 22 | 1003.6 |
| 20260504001545 | 68 | 280 | 0.0 | 9.0 | 0.00 | 0.00 | 0.00 | 22 | 1003.6 |
| 20260504001046 | 68 | 279 | 0.0 | 11.0 | 0.00 | 0.00 | 0.00 | 21 | 1003.6 |
| 20260504000545 | 68 | 281 | 0.0 | 12.0 | 0.00 | 0.00 | 0.00 | 21 | 1003.5 |
| 20260504000044 | 69 | 283 | 1.0 | 9.0 | 0.00 | 0.00 | 0.00 | 20 | 1003.5 |
| 20260503235642 | 69 | 279 | 2.0 | 9.0 | 0.00 | 0.00 | 0.00 | 19 | 1003.5 |
| 20260503235042 | 69 | 274 | 0.0 | 7.0 | 0.00 | 0.00 | 0.00 | 19 | 1003.6 |
| 20260503234546 | 69 | 274 | 0.0 | 9.0 | 0.00 | 0.00 | 0.00 | 18 | 1003.6 |
| 20260503234043 | 69 | 278 | 1.0 | 9.0 | 0.00 | 0.00 | 0.00 | 18 | 1003.6 |
| 20260503233545 | 69 | 272 | 1.0 | 9.0 | 0.00 | 0.00 | 0.00 | 18 | 1003.6 |
| 20260503233042 | 70 | 274 | 2.0 | 9.0 | 0.00 | 0.00 | 0.00 | 18 | 1003.6 |
| 20260503232545 | 70 | 272 | 0.0 | 7.0 | 0.00 | 0.00 | 0.00 | 17 | 1003.6 |
| 20260503232041 | 70 | 272 | 0.0 | 5.0 | 0.00 | 0.00 | 0.00 | 18 | 1003.6 |
| 20260503231542 | 70 | 268 | 0.0 | 5.0 | 0.00 | 0.00 | 0.00 | 17 | 1003.6 |
| 20260503231042 | 70 | 253 | 0.0 | 6.0 | 0.00 | 0.00 | 0.00 | 17 | 1003.6 |
| 20260503230542 | 70 | 283 | 0.0 | 7.0 | 0.00 | 0.00 | 0.00 | 16 | 1003.5 |
| 20260503230041 | 70 | 288 | 0.0 | 7.0 | 0.00 | 0.00 | 0.00 | 16 | 1003.5 |
| 20260503225539 | 71 | 276 | 0.0 | 0.0 | 0.00 | 0.00 | 0.00 | 18 | 1003.5 |
| 20260503225039 | 71 | 276 | 0.0 | 2.0 | 0.00 | 0.00 | 0.00 | 16 | 1003.6 |
| 20260503224538 | 71 | 276 | 0.0 | 2.0 | 0.00 | 0.00 | 0.00 | 16 | 1003.6 |
| 20260503224038 | 71 | 276 | 0.0 | 4.0 | 0.00 | 0.00 | 0.00 | 16 | 1003.7 |
| 20260503223537 | 71 | 277 | 0.0 | 10.0 | 0.00 | 0.00 | 0.00 | 16 | 1003.7 |
| 20260503223037 | 71 | 270 | 1.0 | 10.0 | 0.00 | 0.00 | 0.00 | 15 | 1003.8 |
| 20260503222536 | 71 | 261 | 0.0 | 9.0 | 0.00 | 0.00 | 0.00 | 16 | 1003.9 |
| 20260503222038 | 71 | 261 | 2.0 | 9.0 | 0.00 | 0.00 | 0.00 | 15 | 1003.9 |
| 20260503221541 | 71 | 242 | 0.0 | 11.0 | 0.00 | 0.00 | 0.00 | 15 | 1004.0 |
| 20260503221037 | 72 | 242 | 1.0 | 11.0 | 0.00 | 0.00 | 0.00 | 15 | 1004.0 |
| 20260503220534 | 72 | 250 | 0.0 | 3.0 | 0.00 | 0.00 | 0.00 | 14 | 1004.2 |
| 20260503220033 | 72 | 250 | 0.0 | 8.0 | 0.00 | 0.00 | 0.00 | 15 | 1004.2 |
| 20260503215533 | 72 | 250 | 1.0 | 8.0 | 0.00 | 0.00 | 0.00 | 14 | 1004.3 |
| 20260503215032 | 72 | 250 | 0.0 | 5.0 | 0.00 | 0.00 | 0.00 | 15 | 1004.3 |
| 20260503214533 | 73 | 253 | 1.0 | 10.0 | 0.00 | 0.00 | 0.00 | 15 | 1004.5 |
| 20260503214030 | 73 | 256 | 1.0 | 14.0 | 0.00 | 0.00 | 0.00 | 14 | 1004.6 |
| 20260503213530 | 73 | 262 | 1.0 | 12.0 | 0.00 | 0.00 | 0.00 | 15 | 1004.7 |
| 20260503213036 | 73 | 243 | 0.0 | 1.0 | 0.00 | 0.00 | 0.00 | 17 | 1004.7 |
| 20260503212529 | 73 | 243 | 0.0 | 0.0 | 0.00 | 0.00 | 0.00 | 14 | 1004.9 |
| 20260503212032 | 73 | 243 | 0.0 | 0.0 | 0.00 | 0.00 | 0.00 | 14 | 1004.9 |
| 20260503211528 | 73 | 243 | 0.0 | 0.0 | 0.00 | 0.00 | 0.00 | 13 | 1005.0 |
| 20260503211027 | 73 | 243 | 0.0 | 2.0 | 0.00 | 0.00 | 0.00 | 14 | 1005.2 |
| 20260503210527 | 74 | 243 | 0.0 | 2.0 | 0.00 | 0.00 | 0.00 | 13 | 1005.2 |
| 20260503210028 | 74 | 245 | 0.0 | 1.0 | 0.00 | 0.00 | 0.00 | 15 | 1005.3 |
| 20260503205525 | 74 | 245 | 0.0 | 3.0 | 0.00 | 0.00 | 0.00 | 13 | 1005.4 |
| 20260503205025 | 75 | 245 | 0.0 | 3.0 | 0.00 | 0.00 | 0.00 | 13 | 1005.5 |
| 20260503204537 | 75 | 245 | 0.0 | 3.0 | 0.00 | 0.00 | 0.00 | 14 | 1005.6 |
| 20260503204023 | 75 | 245 | 0.0 | 3.0 | 0.00 | 0.00 | 0.00 | 14 | 1005.7 |
| 20260503203523 | 75 | 244 | 0.0 | 3.0 | 0.00 | 0.00 | 0.00 | 13 | 1005.7 |
| 20260503203024 | 74 | 233 | 0.0 | 3.0 | 0.00 | 0.00 | 0.00 | 13 | 1005.8 |
| 20260503202522 | 74 | 231 | 0.0 | 4.0 | 0.00 | 0.00 | 0.00 | 13 | 1005.9 |
| 20260503202021 | 74 | 216 | 0.0 | 1.0 | 0.00 | 0.00 | 0.00 | 14 | 1006.0 |
| 20260503201520 | 74 | 216 | 0.0 | 2.0 | 0.00 | 0.00 | 0.00 | 13 | 1006.2 |
| 20260503201022 | 74 | 219 | 0.0 | 8.0 | 0.00 | 0.00 | 0.00 | 14 | 1006.3 |
| 20260503200519 | 75 | 251 | 2.0 | 8.0 | 0.00 | 0.00 | 0.00 | 12 | 1006.4 |
| 20260503200018 | 76 | 183 | 0.0 | 5.0 | 0.00 | 0.00 | 0.00 | 13 | 1006.5 |
| 20260503195516 | 76 | 268 | 0.0 | 5.0 | 0.00 | 0.00 | 0.00 | 14 | 1006.7 |
| 20260503195016 | 76 | 254 | 0.0 | 8.0 | 0.00 | 0.00 | 0.00 | 12 | 1006.6 |
| 20260503194515 | 76 | 254 | 0.0 | 8.0 | 0.00 | 0.00 | 0.00 | 12 | 1006.7 |
| 20260503194013 | 75 | 260 | 0.0 | 4.0 | 0.00 | 0.00 | 0.00 | 13 | 1006.7 |
| 20260503193512 | 75 | 256 | 0.0 | 3.0 | 0.00 | 0.00 | 0.00 | 12 | 1006.8 |
| 20260503193012 | 74 | 256 | 0.0 | 3.0 | 0.00 | 0.00 | 0.00 | 13 | 1006.9 |
| 20260503192511 | 74 | 176 | 0.0 | 4.0 | 0.00 | 0.00 | 0.00 | 13 | 1007.0 |
| 20260503192015 | 74 | 174 | 0.0 | 4.0 | 0.00 | 0.00 | 0.00 | 13 | 1006.9 |
| 20260503191509 | 75 | 258 | 0.0 | 7.0 | 0.00 | 0.00 | 0.00 | 13 | 1007.0 |
| 20260503191010 | 75 | 264 | 0.0 | 10.0 | 0.00 | 0.00 | 0.00 | 14 | 1007.2 |
| 20260503190508 | 74 | 259 | 1.0 | 10.0 | 0.00 | 0.00 | 0.00 | 15 | 1007.3 |
| 20260503190005 | 73 | 260 | 0.0 | 10.0 | 0.00 | 0.00 | 0.00 | 15 | 1007.4 |
| 20260503185504 | 73 | 260 | 2.0 | 10.0 | 0.00 | 0.00 | 0.00 | 15 | 1007.7 |
| 20260503185005 | 72 | 268 | 0.0 | 0.0 | 0.00 | 0.00 | 0.00 | 15 | 1007.6 |
| 20260503184503 | 72 | 268 | 0.0 | 10.0 | 0.00 | 0.00 | 0.00 | 14 | 1007.7 |
| 20260503184104 | 72 | 268 | 1.0 | 10.0 | 0.00 | 0.00 | 0.00 | 17 | 1007.9 |
| 20260503183558 | 72 | 259 | 0.0 | 13.0 | 0.00 | 0.00 | 0.00 | 19 | 1007.9 |
| 20260503183114 | 71 | 257 | 3.0 | 14.0 | 0.00 | 0.00 | 0.00 | 17 | 1007.9 |
| 20260503182555 | 71 | 254 | 3.0 | 12.0 | 0.00 | 0.00 | 0.00 | 18 | 1008.0 |
| 20260503182054 | 71 | 263 | 0.0 | 8.0 | 0.00 | 0.00 | 0.00 | 19 | 1008.2 |
| 20260503181553 | 70 | 263 | 1.0 | 12.0 | 0.00 | 0.00 | 0.00 | 19 | 1008.3 |
| 20260503181052 | 70 | 262 | 1.0 | 10.0 | 0.00 | 0.00 | 0.00 | 19 | 1008.3 |
| 20260503180653 | 70 | 254 | 0.0 | 9.0 | 0.00 | 0.00 | 0.00 | 19 | 1008.4 |
| 20260503180050 | 69 | 262 | 0.0 | 14.0 | 0.00 | 0.00 | 0.00 | 18 | 1008.5 |
| 20260503175548 | 69 | 259 | 0.0 | 10.0 | 0.00 | 0.00 | 0.00 | 21 | 1008.6 |
| 20260503175050 | 69 | 243 | 1.0 | 10.0 | 0.00 | 0.00 | 0.00 | 21 | 1008.6 |
| 20260503174545 | 68 | 254 | 0.0 | 15.0 | 0.00 | 0.00 | 0.00 | 21 | 1008.7 |
| 20260503174044 | 68 | 264 | 3.0 | 15.0 | 0.00 | 0.00 | 0.00 | 21 | 1008.9 |
| 20260503173543 | 68 | 256 | 0.0 | 9.0 | 0.00 | 0.00 | 0.00 | 21 | 1009.0 |
| 20260503173109 | 67 | 256 | 1.0 | 13.0 | 0.00 | 0.00 | 0.00 | 20 | 1009.1 |
| 20260503172545 | 67 | 256 | 1.0 | 14.0 | 0.00 | 0.00 | 0.00 | 20 | 1009.2 |
| 20260503172040 | 67 | 256 | 4.0 | 14.0 | 0.00 | 0.00 | 0.00 | 20 | 1009.3 |
| 20260503171542 | 67 | 257 | 1.0 | 12.0 | 0.00 | 0.00 | 0.00 | 21 | 1009.6 |
| 20260503171039 | 67 | 250 | 2.0 | 13.0 | 0.00 | 0.00 | 0.00 | 20 | 1009.6 |
| 20260503170539 | 67 | 254 | 4.0 | 14.0 | 0.00 | 0.00 | 0.00 | 20 | 1009.7 |
| 20260503150519 | 61 | 247 | 0.0 | 0.0 | 0.00 | 0.00 | 0.00 | 29 | 1010.4 |